Weather Roundup
Issued by NWS Chicago, IL

Home | Current Version | Previous Version | Text Only | Print | Product List | Glossary Off
Versions: 1 2 3 4 5 6 7 8 9 10 11 12 13 14 15 16 17 18 19 20 21 22 23 24 25 26 27 28 29 30 31 32 33 34 35 36 37 38 39 40 41 42 43 44 45 46 47 48 49 50

000
NZUS59 KLOT 180004
HRRLOT

CHICAGO AREA WEATHER ROUNDUP
NATIONAL WEATHER SERVICE CHICAGO/ROMEOVILLE IL
700 PM CDT TUE OCT 17 2017

NOTE: "FAIR" INDICATES FEW OR NO CLOUDS BELOW 12,000 FEET WITH NO
SIGNIFICANT WEATHER AND/OR OBSTRUCTIONS TO VISIBILITY.

* THESE STATIONS ARE NOT UNDER NWS QUALITY CONTROL. THEY ALSO MAY NOT
  REPORT WEATHER SUCH AS PRECIPITATION OR FOG.

ILZ005-006-012>014-019>023-180100-
NORTHEAST ILLINOIS

CITY           SKY/WX    TMP DP  RH WIND       PRES   REMARKS
OHARE          PTCLDY    64  41  42 SW10      30.11S
6HR MIN TEMP:  64; 6HR MAX TEMP:  70;

MIDWAY         CLEAR     65  40  39 SW12G21   30.13R
6HR MIN TEMP:  65; 6HR MAX TEMP:  71;

AURORA         CLEAR     59  42  53 S8        30.14R
6HR MIN TEMP:  59; 6HR MAX TEMP:  69;

LANSING*       CLEAR     59  44  58 SW9       30.16R
JOLIET*        CLEAR     63  42  47 S6        30.15R
WAUKEGAN       CLEAR     59  44  57 SW9       30.09R
6HR MIN TEMP:  59; 6HR MAX TEMP:  72;

DUPAGE AIRPORT CLEAR     56  44  64 S9        30.12R
6HR MIN TEMP:  56; 6HR MAX TEMP:  69;

WHEELING       CLEAR     64  42  44 S8        30.12R
6HR MIN TEMP:  64; 6HR MAX TEMP:  71;

KANKAKEE*      CLEAR     58  40  50 S6        30.18R
MORRIS*        CLEAR     58  40  51 S6        30.14R
NORTHERLY ISL    N/A     66  36  32 S9          N/A
$$

WIZ051-052-058>065-066-070>072-180100-
SOUTHEAST WISCONSIN

CITY           SKY/WX    TMP DP  RH WIND       PRES   REMARKS
MILWAUKEE      PTCLDY    65  43  44 SW10      30.07R
6HR MIN TEMP:  65; 6HR MAX TEMP:  73;

KENOSHA*       CLEAR     61  42  49 S9        30.09R
RACINE*        CLEAR     63  42  46 SW7       30.10R
WAUKESHA       CLEAR     61  43  51 S6        30.08R
WEST BEND      CLEAR     61  41  48 SW3       30.05R
$$

INZ001>003-010>013-019-020-180100-
NORTHWEST INDIANA

CITY           SKY/WX    TMP DP  RH WIND       PRES   REMARKS
GARY*          NOT AVBL
MICHIGAN CITY* NOT AVBL
RENSSELAER*    NOT AVBL
VALPARAISO     CLEAR     61  41  47 S8        30.17R
$$

LMZ740>746-180100-
SOUTHERN LAKE MICHIGAN

STATION/POSITION TIME  SKY/WX   TEMP WIND        PRES    VSBY
                                AIR  DIR/SP/G
                 (UTC)          (F)  (DEG/KT/KT) (MB)    (MI)
HARRISON CRIB    2310            68  210/ 15/ 17   N/A
BURNHAM HARBOR   2345            66  210/  8/ 15   N/A
CALUMET HARBOR   2330            66  200/  8/ 11 1019.6R
BURNS HARBOR     2340            64  190/  9/ 13 1021.0R
MICHIGAN CITY    2340            64  180/ 10/ 12   N/A
$$

ABBREVIATIONS USED IN REMARKS
   TC - TEMPERATURE IN CELSIUS
  WCI - WIND CHILL INDEX
   HX - HEAT INDEX
  VSB - VISIBILITY
$$




USA.gov is the U.S. government's official web portal to all federal, state and local government web resources and services.